{"data":{"norad_id":50839,"epoch":"2026-09-19T23:02:23.326080Z","epoch_age_seconds":94812,"freshness":"FRESH","line1":"1 50839U 22001AN  26262.95999220  .00000271  00000+0  20510-4 0  9994","line2":"2 50839  53.1611  12.2752 0001098  85.3746 274.7381 15.31696400259782","mean_motion":15.316964,"eccentricity":0.0001098,"inclination_deg":53.1611,"raan_deg":12.2752,"arg_perigee_deg":85.3746,"mean_anomaly_deg":274.7381,"bstar":2.051e-5,"rev_number":25978,"period_min":94.013408923596,"perigee_km":469.99871878695,"apogee_km":471.50273453172,"semimajor_km":6848.8877266593,"source":"CELESTRAK","updated_at":"2026-09-20T09:00:39.581451Z"}}